User: anonymous   Login
Location: Caltech
(34.1382°N, 118.1253°W)
Time: 04:23:40
(UTC-07:00)
Language:

SL-08 R/B - Orbit

View from above orbital plane
View from above orbital plane
View from above satellite
View from above satellite

Ground track
Ground track

The orbit data is extracted from the following two-line orbital elements,

1 27561U 02054C   17117.87252327 +.00000058 +00000-0 +23989-4 0  9993
2 27561 098.2492 252.2476 0045518 332.2042 027.6724 14.55605046764881
Epoch (UTC): 27 April 2017 20:56:26
Eccentricity: 0.0045518
inclination: 98.2492°
perigee height: 675 km
apogee height: 739 km
right ascension of ascending node: 252.2476°
argument of perigee: 332.2042°
revolutions per day: 14.55605046
mean anomaly at epoch: 27.6724°
orbit number at epoch: 76488

The dashed part of the orbit path shows where the satellite is in the earth's shadow,  

DLR